Location: Bieg
(49.3499°N, 10.3835°E)
Time: 17:41:52
(UTC+00:00)

Meteor 1-28 Rocket - Pass Details

Date: 21 December 2025
Orbit: 429 x 441 km, 97.6° (Epoch: 12 January)

Event Time Altitude Azimuth Distance (km) Brightness Sun altitude
Exits shadow 15:51:58 - 21° (NNE) 2,339 6.0 -4.9°
Reaches altitude 10° 15:53:54 10° 31° (NNE) 1,555 5.1 -5.2°
Maximum altitude 15:56:58 34° 98° (E) 746 3.6 -5.6°
Drops below altitude 10° 16:00:00 10° 165° (SSE) 1,535 5.8 -6.0°
Sets 16:02:06 0° 175° (S) 2,394 6.9 -6.3°
